[[{"header":{"parameterUnit":"m.s-1","parameterCategory":1,"la1":30.2991,"la2":30.254,"lo1":-89.0895,"lo2":-89.0444,"dy":0.0017,"dx":0.0017,"nx":28,"ny":28,"refTime":"2025-06-22T21:00:00:Z","depth":0,"parameterNumber":2,"parameterNumberName":"U-component_of_WINDS"},"data":[0,0,0,0,0,0,0,0,0,0,0,0,0,0,0,0,0,0,0,0,0,0,0,0,0,0,0,0,0,0,0,0,0,0,0,0,0,0,0,0,0,0,0,0,0,0,0,0,0,0,0,0,0,0,0,0,0,0,-3.6189,-3.6189,0,-3.6106,-3.6105,-3.6104,-3.5991,-3.5989,-3.5987,-3.5985,-3.5901,-3.59,-3.59,0,0,0,0,0,0,0,0,0,0,0,0,0,-3.6253,-3.6253,-3.619,-3.6188,-3.6187,-3.6106,-3.6105,-3.6104,-3.5991,-3.5989,-3.5986,-3.5984,-3.5901,-3.59,-3.59,0,0,0,0,0,0,0,0,0,0,0,0,0,-3.6203,-3.6252,-3.619,-3.6121,-3.6114,-3.6106,-3.6105,-3.6104,-3.5992,-3.5989,-3.5986,-3.5983,-3.5901,-3.59,-3.59,-3.5952,0,0,-3.5897,-3.5897,0,0,0,0,0,0,0,0,-3.6206,-3.6201,-3.6132,-3.6126,-3.6118,-3.6056,-3.6096,-3.6053,-3.5992,-3.6038,-3.5985,-3.5982,-3.5955,-3.5949,-3.594,-3.5948,-3.5945,-3.5897,-3.5897,-3.5897,-3.5896,0,0,0,0,0,0,0,-3.621,-3.6204,-3.6156,-3.6132,-3.6123,-3.6095,-3.6085,-3.6088,-3.6014,-3.6034,-3.6026,-3.6017,-3.595,-3.5941,-3.5937,-3.5943,-3.5897,-3.5897,-3.5896,-3.5896,-3.5993,-3.5996,0,0,0,0,0,0,-3.6223,-3.6208,-3.6159,-3.6154,-3.6156,-3.6097,-3.6085,-3.6079,-3.6013,-3.6,-3.602,-3.6012,-3.5944,-3.5938,-3.5934,-3.5992,-3.5897,-3.5896,-3.5895,-3.599,-3.5993,-3.5997,0,0,0,0,0,0,-3.6225,-3.622,-3.6162,-3.6179,-3.6169,-3.6099,-3.6092,-3.6079,-3.6069,-3.6002,-3.5989,-3.6024,-3.5941,-3.5935,-3.5949,-3.5988,-3.5896,-3.5895,-3.5986,-3.5991,-3.5995,-3.6109,0,0,0,0,0,0,-3.6227,-3.6221,-3.624,-3.618,-3.6169,-3.6179,-3.6095,-3.6079,-3.6068,-3.6058,-3.6002,-3.5991,-3.5938,-3.5951,-3.5948,-3.5985,-3.5894,-3.5982,-3.5988,-3.5994,-3.6101,-3.6117,-3.613,0,0,0,0,0,-3.623,-3.6275,-3.6242,-3.6236,-3.619,-3.6181,-3.6175,-3.6113,-3.6072,-3.609,-3.6048,-3.5992,-3.5984,-3.5953,-3.5949,-3.5986,-3.598,-3.5987,-3.5993,-3.6095,-3.6114,-3.613,0,0,0,0,0,0,-3.6341,-3.6266,-3.6228,-3.6255,-3.6225,-3.6162,-3.6183,-3.6135,-3.6117,-3.6108,-3.6033,-3.6021,-3.6045,-3.6017,-3.5984,-3.6035,-3.5974,-3.598,-3.6052,-3.607,-3.6084,-3.609,-3.5894,0,0,0,0,0,-3.6369,-3.6367,-3.6302,-3.6332,-3.6319,-3.6254,-3.6248,-3.6203,-3.617,-3.6157,-3.6115,-3.6085,-3.6076,-3.6071,-3.6059,-3.6097,-3.6084,-3.6121,-3.6135,-3.6147,-3.6154,-3.6174,-3.619,-3.6019,-3.6019,-3.6019,0,0,-3.6426,-3.6385,-3.6388,-3.6353,-3.6325,-3.6326,-3.6244,-3.6248,-3.6248,-3.6157,-3.6168,-3.6137,-3.6099,-3.6126,-3.6136,-3.6103,-3.6199,-3.6156,-3.6166,-3.6166,-3.6183,-3.6199,-3.6213,-3.6023,-3.6023,-3.6022,0,0,-3.6531,-3.6499,-3.6521,-3.6495,-3.6454,-3.6411,-3.6417,-3.6361,-3.6337,-3.6347,-3.6279,-3.6279,-3.6264,-3.624,-3.6226,-3.6324,-3.6273,-3.6322,-3.6397,-3.6417,-3.6431,-3.6442,-3.6479,-3.6492,-3.6329,-3.6329,-3.6329,0,-3.6607,-3.6605,-3.6539,-3.6547,-3.6534,-3.6453,-3.6476,-3.6454,-3.6411,-3.6405,-3.6369,-3.635,-3.6318,-3.6339,-3.6364,-3.6354,-3.636,-3.6328,-3.6434,-3.6445,-3.6455,-3.6489,-3.6502,-3.6335,-3.6335,-3.6334,-3.6333,0,-3.6701,-3.6701,-3.6724,-3.6685,-3.6675,-3.6691,-3.6628,-3.6626,-3.6583,-3.6545,-3.6557,-3.6516,-3.6495,-3.6497,-3.6455,-3.6513,-3.6494,-3.6448,-3.6384,-3.6479,-3.6509,-3.6522,-3.6344,-3.6342,-3.634,-3.6339,0,0,-3.6872,-3.6798,-3.6808,-3.679,-3.674,-3.6738,-3.6751,-3.6731,-3.6731,-3.6705,-3.6715,-3.6705,-3.6662,-3.6646,-3.6601,-3.6619,-3.6702,-3.657,-3.6568,-3.6597,-3.6765,-3.6801,-3.6817,-3.6668,-3.667,-3.6671,-3.6768,0,-3.6967,-3.6984,-3.6927,-3.6959,-3.6959,-3.6883,-3.6894,-3.6865,-3.683,-3.6825,-3.6786,-3.6781,-3.6724,-3.6715,-3.6729,-3.6689,-3.6734,-3.6681,-3.6677,-3.6678,-3.6689,-3.6832,-3.687,-3.6963,-3.678,-3.6782,-3.6783,0,-3.708,-3.7061,-3.7094,-3.7043,-3.7041,-3.7052,-3.703,-3.7026,-3.6993,-3.6966,-3.695,-3.6898,-3.6908,-3.6848,-3.6862,-3.6827,-3.6822,-3.6803,-3.6805,-3.6802,-3.6736,-3.6835,-3.6991,-3.7006,-3.6801,-3.68,-3.6798,0,-3.7203,-3.7185,-3.7203,-3.719,-3.7131,-3.7141,-3.7117,-3.7081,-3.7073,-3.7054,-3.7048,-3.7031,-3.7021,-3.7009,-3.6955,-3.6916,-3.6976,-3.6911,-3.6955,-3.6957,-3.6971,-3.6971,-3.713,-3.6968,-3.6967,-3.6967,-3.6967,0,-3.7316,-3.7339,-3.7257,-3.7268,-3.7293,-3.7227,-3.7253,-3.7221,-3.719,-3.7195,-3.7128,-3.7133,-3.706,-3.7059,-3.7016,-3.7035,-3.7031,-3.7011,-3.6999,-3.7017,-3.702,-3.7013,-3.7005,-3.6971,-3.697,-3.6969,-3.6969,0,-3.7456,-3.7403,-3.7417,-3.7361,-3.7348,-3.7368,-3.7321,-3.7329,-3.729,-3.7297,-3.7295,-3.7234,-3.7229,-3.7173,-3.7155,-3.7127,-3.7163,-3.7138,-3.7174,-3.7167,-3.7214,-3.7211,-3.7375,-3.7393,-3.7219,-3.7221,-3.7222,0,-3.7532,-3.7548,-3.7495,-3.7493,-3.7472,-3.747,-3.7462,-3.7398,-3.7393,-3.7357,-3.737,-3.736,-3.7347,-3.7343,-3.7298,-3.7284,-3.726,-3.7318,-3.7257,-3.7275,-3.7262,-3.7262,-3.7264,-3.7331,-3.7333,-3.7335,-3.7337,0,-3.7672,-3.7645,-3.7636,-3.7618,-3.7611,-3.7593,-3.7572,-3.7575,-3.7505,-3.7502,-3.7496,-3.7487,-3.747,-3.746,-3.7439,-3.7416,-3.7366,-3.7356,-3.7366,-3.7384,-3.7405,-3.7396,-3.721,-3.7353,-3.7351,-3.735,-3.7349,-3.7348,-3.7783,-3.7794,-3.7759,-3.7752,-3.7729,-3.7712,-3.7717,-3.768,-3.7673,-3.7654,-3.7617,-3.7617,-3.7585,-3.7552,-3.7533,-3.7533,-3.7502,-3.7516,-3.752,-3.7524,-3.7534,-3.7405,-3.7528,-3.7528,-3.7527,-3.7527,-3.7527,0,-3.792,-3.7894,-3.7888,-3.7861,-3.7856,-3.7809,-3.7784,-3.7783,-3.7783,-3.7758,-3.7748,-3.7742,-3.7733,-3.7688,-3.7675,-3.7683,-3.766,-3.7682,-3.7681,-3.7677,-3.7561,-3.7555,-3.7701,-3.7701,-3.7701,-3.7701,-3.7701,-3.7701,-3.7991,-3.8009,-3.7978,-3.7985,-3.7958,-3.7958,-3.7948,-3.7932,-3.7911,-3.7907,-3.79,-3.7871,-3.7838,-3.7822,-3.7813,-3.78,-3.7798,-3.7828,-3.7808,-3.7701,-3.7685,-3.7669,-3.7662,-3.7828,-3.7829,-3.7923,-3.7924,-3.7925]},{"header":{"parameterUnit":"m.s-1","parameterCategory":1,"la1":30.2991,"la2":30.254,"lo1":-89.0895,"lo2":-89.0444,"dy":0.0017,"dx":0.0017,"nx":28,"ny":28,"refTime":"2025-06-22T21:00:00:Z","depth":0,"parameterNumber":3,"parameterNumberName":"V-component_of_WINDS"},"data":[0,0,0,0,0,0,0,0,0,0,0,0,0,0,0,0,0,0,0,0,0,0,0,0,0,0,0,0,0,0,0,0,0,0,0,0,0,0,0,0,0,0,0,0,0,0,0,0,0,0,0,0,0,0,0,0,0,0,1.7385,1.7386,0,1.7405,1.7405,1.7405,1.7437,1.7438,1.7438,1.7439,1.7457,1.7457,1.7457,0,0,0,0,0,0,0,0,0,0,0,0,0,1.7375,1.7375,1.7385,1.7386,1.7386,1.7405,1.7405,1.7405,1.7437,1.7438,1.7438,1.7439,1.7457,1.7457,1.7457,0,0,0,0,0,0,0,0,0,0,0,0,0,1.7385,1.7375,1.7385,1.7404,1.7406,1.7405,1.7405,1.7405,1.7437,1.7438,1.7439,1.7439,1.7457,1.7457,1.7457,1.7438,0,0,1.7456,1.7456,0,0,0,0,0,0,0,0,1.7385,1.7386,1.7401,1.7403,1.7405,1.7419,1.7408,1.7416,1.7437,1.7425,1.7439,1.744,1.7443,1.7445,1.7446,1.7439,1.744,1.7456,1.7456,1.7456,1.7456,0,0,0,0,0,0,0,1.7384,1.7385,1.7393,1.7401,1.7404,1.7411,1.7414,1.741,1.7429,1.7426,1.7428,1.743,1.7445,1.7446,1.7447,1.744,1.7456,1.7456,1.7456,1.7456,1.7418,1.7417,0,0,0,0,0,0,1.7381,1.7384,1.7392,1.7394,1.7397,1.7411,1.7413,1.7414,1.7429,1.7432,1.743,1.7432,1.7446,1.7447,1.7448,1.7426,1.7456,1.7456,1.7456,1.7419,1.7418,1.7417,0,0,0,0,0,0,1.738,1.7381,1.7392,1.739,1.7392,1.741,1.741,1.7414,1.7415,1.7432,1.7435,1.7428,1.7447,1.7448,1.744,1.7427,1.7456,1.7456,1.742,1.7419,1.7418,1.7384,0,0,0,0,0,0,1.738,1.7381,1.7374,1.7389,1.7392,1.7384,1.7409,1.7413,1.7415,1.7418,1.7431,1.7434,1.7447,1.744,1.744,1.7428,1.7456,1.7421,1.742,1.7418,1.7386,1.7381,1.7377,0,0,0,0,0,1.738,1.7364,1.7374,1.7374,1.7384,1.7383,1.7385,1.7401,1.7414,1.7407,1.7418,1.7433,1.7429,1.7439,1.7439,1.7427,1.7422,1.742,1.7418,1.7388,1.7382,1.7377,0,0,0,0,0,0,1.7346,1.7366,1.7377,1.7366,1.7373,1.7389,1.738,1.7395,1.7397,1.74,1.742,1.7423,1.7413,1.7419,1.743,1.741,1.7428,1.7426,1.7405,1.74,1.7396,1.7394,1.7456,0,0,0,0,0,1.7337,1.7336,1.7353,1.7341,1.7344,1.7362,1.7362,1.7375,1.7382,1.7385,1.7395,1.7402,1.7402,1.7402,1.7403,1.7388,1.7391,1.7379,1.7375,1.7371,1.7369,1.7361,1.7356,1.741,1.741,1.741,0,0,1.7319,1.733,1.7327,1.7335,1.7342,1.7339,1.7364,1.736,1.7359,1.7385,1.7378,1.7386,1.7394,1.7383,1.7378,1.7388,1.7355,1.7369,1.7366,1.7365,1.7358,1.7353,1.7348,1.7409,1.7409,1.7409,0,0,1.7284,1.7293,1.7283,1.729,1.73,1.7312,1.731,1.7324,1.733,1.7325,1.7344,1.7342,1.7342,1.7347,1.735,1.7318,1.7332,1.7318,1.7295,1.7287,1.7282,1.7279,1.7266,1.7262,1.7316,1.7316,1.7316,0,1.726,1.7257,1.7277,1.7272,1.7274,1.7299,1.729,1.7295,1.7305,1.7306,1.7317,1.7317,1.7325,1.7315,1.7307,1.7309,1.7306,1.7316,1.7282,1.7278,1.7275,1.7263,1.7259,1.7314,1.7314,1.7314,1.7314,0,1.7227,1.7225,1.7216,1.7225,1.7227,1.722,1.7238,1.7238,1.725,1.7261,1.7254,1.7264,1.7268,1.7267,1.7279,1.7258,1.7264,1.7278,1.7297,1.7267,1.7257,1.7253,1.7311,1.7312,1.7312,1.7313,0,0,1.7169,1.7191,1.7187,1.7191,1.7205,1.7204,1.7198,1.7202,1.7201,1.7207,1.7202,1.7202,1.7215,1.7218,1.7231,1.7224,1.7198,1.724,1.724,1.723,1.7175,1.7163,1.7157,1.7208,1.7207,1.7206,1.7173,0,1.7136,1.7127,1.7145,1.7132,1.713,1.7154,1.7149,1.7156,1.7167,1.7166,1.7177,1.7176,1.7195,1.7197,1.7191,1.7202,1.7186,1.7205,1.7202,1.7202,1.7198,1.7152,1.7139,1.7108,1.717,1.7169,1.7168,0,1.7096,1.7101,1.7087,1.7102,1.7102,1.7097,1.7102,1.7102,1.7111,1.7119,1.7123,1.7138,1.7133,1.7153,1.7145,1.7157,1.7158,1.7163,1.7162,1.7161,1.7182,1.7148,1.7098,1.7093,1.7162,1.7163,1.7163,0,1.7054,1.7058,1.705,1.7053,1.707,1.7066,1.7073,1.7083,1.7085,1.7089,1.709,1.7094,1.7096,1.7098,1.7114,1.7127,1.7105,1.7126,1.711,1.711,1.7103,1.7103,1.705,1.7105,1.7106,1.7106,1.7106,0,1.7014,1.7005,1.7031,1.7026,1.7016,1.7037,1.7027,1.7036,1.7045,1.7042,1.7064,1.706,1.7082,1.7081,1.7094,1.7086,1.7087,1.7092,1.7095,1.7089,1.7088,1.7088,1.709,1.7104,1.7105,1.7105,1.7105,0,1.6965,1.6983,1.6976,1.6993,1.6997,1.6989,1.7004,1.6999,1.7012,1.7008,1.7008,1.7026,1.7026,1.7043,1.7046,1.7055,1.704,1.7048,1.7037,1.7039,1.7022,1.7023,1.6967,1.696,1.7021,1.702,1.702,0,1.6938,1.6931,1.6948,1.6948,1.6954,1.6953,1.6955,1.6976,1.6977,1.6987,1.6981,1.6983,1.6986,1.6984,1.6998,1.7,1.7008,1.6988,1.7008,1.7002,1.7006,1.7005,1.7004,1.6983,1.6982,1.6981,1.6981,0,1.6887,1.6896,1.6898,1.6903,1.6905,1.6909,1.6916,1.6914,1.6937,1.6937,1.6937,1.6939,1.6943,1.6944,1.6949,1.6956,1.6972,1.6975,1.6971,1.6964,1.6957,1.6959,1.7024,1.6976,1.6976,1.6977,1.6977,1.6977,1.6847,1.6842,1.6853,1.6855,1.6862,1.6867,1.6864,1.6876,1.6877,1.6882,1.6895,1.6893,1.6903,1.6911,1.6917,1.6915,1.6925,1.692,1.6918,1.6916,1.6913,1.6959,1.6917,1.6917,1.6917,1.6917,1.6917,0,1.6796,1.6805,1.6806,1.6814,1.6815,1.6832,1.684,1.6839,1.6837,1.6846,1.6848,1.6848,1.685,1.6864,1.6867,1.6863,1.687,1.6863,1.6863,1.6864,1.6904,1.6907,1.6857,1.6857,1.6857,1.6857,1.6857,1.6857,1.677,1.6762,1.6773,1.6769,1.6778,1.6777,1.6779,1.6784,1.6791,1.6791,1.6792,1.6802,1.6812,1.6816,1.6818,1.6822,1.6822,1.6812,1.6818,1.6855,1.6861,1.6866,1.6869,1.6812,1.6812,1.6777,1.6777,1.6777]}]]